﻿_id,日時,平均風速(m/s),平均風向,最大瞬間風速(m/s),最大風速時風向,気温(℃),湿度(%),10分間移動積算雨量(mm),1時間移動積算雨量(mm),日雨量(mm),累計雨量(mm),日射(日積算)(MJ/m2),日照(日積算)(min),現地気圧(hPa),海面気圧(hPa)
1,2022-02-28T00:00:00,0.7,北,1.9,北北東,0.3,86.4,0,0,0,0,8.46,179,1009.1,1023.8
2,2022-02-28T00:01:00,0.7,北,1.9,北北東,0.2,86.2,0,0,0,0,0,0,1009.1,1023.8
3,2022-02-28T00:02:00,0.7,北北西,1.9,北北東,0,85.6,0,0,0,0,0,0,1009,1023.7
4,2022-02-28T00:03:00,0.7,北北西,1.9,北北東,0,85,0,0,0,0,0,0,1009.1,1023.8
5,2022-02-28T00:04:00,0.6,北西,1.9,北北東,-0.1,84.8,0,0,0,0,0,0,1009.1,1023.8
6,2022-02-28T00:05:00,0.6,北西,1.9,北北東,-0.3,84.8,0,0,0,0,0,0,1009.1,1023.8
7,2022-02-28T00:06:00,0.6,北西,1.9,北北東,-0.1,85.2,0,0,0,0,0,0,1009.1,1023.8
8,2022-02-28T00:07:00,0.6,北西,1.9,北北東,-0.2,85.7,0,0,0,0,0,0,1009.1,1023.8
9,2022-02-28T00:08:00,0.6,北西,1.5,北西,0,86.4,0,0,0,0,0,0,1009.1,1023.8
10,2022-02-28T00:09:00,0.6,北北西,1.7,北東,0,86.9,0,0,0,0,0,0,1009.1,1023.8
11,2022-02-28T00:10:00,0.7,北北西,2.1,北北東,0,86.9,0,0,0,0,0,0,1009.1,1023.8
12,2022-02-28T00:11:00,0.8,北,2.1,北北東,0,86.8,0,0,0,0,0,0,1009.1,1023.8
13,2022-02-28T00:12:00,0.8,北,2.1,北北東,0,86.9,0,0,0,0,0,0,1009.2,1023.9
14,2022-02-28T00:13:00,0.9,北,2.1,北北東,0,86.9,0,0,0,0,0,0,1009.2,1023.9
15,2022-02-28T00:14:00,0.9,北北東,2.1,北北東,-0.1,86.7,0,0,0,0,0,0,1009.2,1023.9
16,2022-02-28T00:15:00,0.9,北北東,2.1,北北東,-0.2,86.4,0,0,0,0,0,0,1009.2,1023.9
17,2022-02-28T00:16:00,0.9,北北東,2.1,北北東,-0.2,86.6,0,0,0,0,0,0,1009.2,1023.9
18,2022-02-28T00:17:00,0.9,北北東,2.1,北北東,-0.2,86.8,0,0,0,0,0,0,1009.2,1023.9
19,2022-02-28T00:18:00,0.8,北,2.1,北北東,-0.1,87,0,0,0,0,0,0,1009.2,1023.9
20,2022-02-28T00:19:00,0.8,北,2.1,北北東,0,87.4,0,0,0,0,0,0,1009.2,1023.9
21,2022-02-28T00:20:00,0.7,北,2,北東,0,87.8,0,0,0,0,0,0,1009.2,1023.9
22,2022-02-28T00:21:00,0.6,北北西,2,北東,-0.2,87.4,0,0,0,0,0,0,1009.2,1023.9
23,2022-02-28T00:22:00,0.5,北北西,1.5,北,-0.2,87,0,0,0,0,0,0,1009.2,1023.9
24,2022-02-28T00:23:00,0.5,北北西,1.2,北北東,-0.3,87,0,0,0,0,0,0,1009.2,1023.9
25,2022-02-28T00:24:00,0.4,北北西,1.1,北西,-0.3,87,0,0,0,0,0,0,1009.2,1023.9
26,2022-02-28T00:25:00,0.5,北北西,1.1,北西,-0.3,87.4,0,0,0,0,0,0,1009.2,1023.9
27,2022-02-28T00:26:00,0.5,北北西,1.1,北西,-0.2,87.7,0,0,0,0,0,0,1009.3,1024
28,2022-02-28T00:27:00,0.5,北北西,1.1,北西,-0.2,87.7,0,0,0,0,0,0,1009.2,1023.9
29,2022-02-28T00:28:00,0.5,北北西,1.2,北,-0.2,87.9,0,0,0,0,0,0,1009.3,1024
30,2022-02-28T00:29:00,0.5,北北西,1.2,北,-0.1,88,0,0,0,0,0,0,1009.3,1024
31,2022-02-28T00:30:00,0.5,北北西,1.6,北,-0.1,88.3,0,0,0,0,0,0,1009.4,1024.1
32,2022-02-28T00:31:00,0.6,北,1.7,北北東,-0.1,88.3,0,0,0,0,0,0,1009.4,1024.1
33,2022-02-28T00:32:00,0.7,北,1.7,北北東,-0.1,88.1,0,0,0,0,0,0,1009.4,1024.1
34,2022-02-28T00:33:00,0.7,北,1.7,北北東,-0.1,88.2,0,0,0,0,0,0,1009.4,1024.1
35,2022-02-28T00:34:00,0.7,北,1.7,北北東,-0.2,87.9,0,0,0,0,0,0,1009.4,1024.1
36,2022-02-28T00:35:00,0.7,北,1.7,北北東,-0.2,87.9,0,0,0,0,0,0,1009.5,1024.2
37,2022-02-28T00:36:00,0.7,北,1.7,北北東,-0.1,87.8,0,0,0,0,0,0,1009.5,1024.2
38,2022-02-28T00:37:00,0.7,北,1.7,北北東,-0.2,87.9,0,0,0,0,0,0,1009.5,1024.2
39,2022-02-28T00:38:00,0.7,北,1.7,北北東,-0.2,87.8,0,0,0,0,0,0,1009.5,1024.2
40,2022-02-28T00:39:00,0.7,北,1.7,北北東,-0.2,87.6,0,0,0,0,0,0,1009.5,1024.2
41,2022-02-28T00:40:00,0.6,北,1.7,北北東,-0.2,87.9,0,0,0,0,0,0,1009.5,1024.2
42,2022-02-28T00:41:00,0.5,北,1.2,北,-0.2,87.7,0,0,0,0,0,0,1009.4,1024.1
43,2022-02-28T00:42:00,0.4,北北西,1.2,北,-0.2,88.1,0,0,0,0,0,0,1009.5,1024.2
44,2022-02-28T00:43:00,0.4,北北西,1.2,北,-0.2,88,0,0,0,0,0,0,1009.5,1024.2
45,2022-02-28T00:44:00,0.4,北北西,1.2,北,-0.3,87.8,0,0,0,0,0,0,1009.5,1024.2
46,2022-02-28T00:45:00,0.3,北北西,1.2,北,-0.3,87.7,0,0,0,0,0,0,1009.5,1024.2
47,2022-02-28T00:46:00,0.2,静穏,0.7,西北西,-0.4,87.5,0,0,0,0,0,0,1009.5,1024.2
48,2022-02-28T00:47:00,0.2,静穏,0.7,西北西,-0.3,87.7,0,0,0,0,0,0,1009.6,1024.3
49,2022-02-28T00:48:00,0.3,北北西,0.8,北東,-0.3,87.9,0,0,0,0,0,0,1009.6,1024.3
50,2022-02-28T00:49:00,0.3,北,1.1,北北東,-0.1,88.5,0,0,0,0,0,0,1009.6,1024.3
51,2022-02-28T00:50:00,0.4,北,1.2,北東,-0.1,88.9,0,0,0,0,0,0,1009.6,1024.3
52,2022-02-28T00:51:00,0.5,北,1.2,北東,-0.2,88.5,0,0,0,0,0,0,1009.7,1024.4
53,2022-02-28T00:52:00,0.5,北,1.2,北東,-0.2,88.3,0,0,0,0,0,0,1009.7,1024.4
54,2022-02-28T00:53:00,0.6,北,1.2,北東,-0.2,88.2,0,0,0,0,0,0,1009.7,1024.4
55,2022-02-28T00:54:00,0.6,北北東,1.2,北東,-0.3,88.1,0,0,0,0,0,0,1009.7,1024.4
56,2022-02-28T00:55:00,0.6,北北東,1.2,北東,-0.3,88.1,0,0,0,0,0,0,1009.7,1024.4
57,2022-02-28T00:56:00,0.6,北北東,1.2,北東,-0.4,87.7,0,0,0,0,0,0,1009.8,1024.5
58,2022-02-28T00:57:00,0.6,北,1.2,北東,-0.5,87.5,0,0,0,0,0,0,1009.7,1024.5
59,2022-02-28T00:58:00,0.6,北,1.2,北東,-0.4,87.5,0,0,0,0,0,0,1009.7,1024.4
60,2022-02-28T00:59:00,0.6,北北西,1.2,北東,-0.6,87.3,0,0,0,0,0,0,1009.7,1024.5
61,2022-02-28T01:00:00,0.5,北北西,1.2,北北東,-0.4,88,0,0,0,0,0,0,1009.7,1024.4
62,2022-02-28T01:01:00,0.4,北西,1.1,北北東,-0.5,88.1,0,0,0,0,0,0,1009.7,1024.5
63,2022-02-28T01:02:00,0.4,北西,1,西,-0.5,88.1,0,0,0,0,0,0,1009.7,1024.5
64,2022-02-28T01:03:00,0.4,北西,1,西,-0.5,88,0,0,0,0,0,0,1009.7,1024.5
65,2022-02-28T01:04:00,0.4,西北西,1,西,-0.3,88.6,0,0,0,0,0,0,1009.7,1024.4
66,2022-02-28T01:05:00,0.3,西北西,1,西,-0.4,88.5,0,0,0,0,0,0,1009.7,1024.4
67,2022-02-28T01:06:00,0.4,西北西,1,西,-0.5,88.3,0,0,0,0,0,0,1009.7,1024.5
68,2022-02-28T01:07:00,0.4,西北西,1,西,-0.5,88.2,0,0,0,0,0,0,1009.6,1024.3
69,2022-02-28T01:08:00,0.4,北西,1,西,-0.5,88.5,0,0,0,0,0,0,1009.7,1024.5
70,2022-02-28T01:09:00,0.4,北西,0.7,北西,-0.3,88.6,0,0,0,0,0,0,1009.7,1024.4
71,2022-02-28T01:10:00,0.4,北西,0.7,北西,-0.4,88.9,0,0,0,0,0,0,1009.7,1024.4
72,2022-02-28T01:11:00,0.4,北西,0.7,北西,-0.5,88.5,0,0,0,0,0,0,1009.8,1024.6
73,2022-02-28T01:12:00,0.4,北西,0.7,北西,-0.7,87.9,0,0,0,0,0,0,1009.8,1024.6
74,2022-02-28T01:13:00,0.4,北西,0.7,北西,-0.7,87.8,0,0,0,0,0,0,1009.7,1024.5
75,2022-02-28T01:14:00,0.3,北西,0.7,北西,-0.7,87.8,0,0,0,0,0,0,1009.8,1024.6
76,2022-02-28T01:15:00,0.3,北北西,0.7,北西,-0.7,88.2,0,0,0,0,0,0,1009.8,1024.6
77,2022-02-28T01:16:00,0.3,北北西,0.7,北西,-0.6,88.5,0,0,0,0,0,0,1009.8,1024.6
78,2022-02-28T01:17:00,0.3,北北西,0.7,北西,-0.6,88.7,0,0,0,0,0,0,1009.8,1024.6
79,2022-02-28T01:18:00,0.3,北西,0.7,北西,-0.4,88.9,0,0,0,0,0,0,1009.8,1024.5
80,2022-02-28T01:19:00,0.3,北西,0.6,北西,-0.5,88.8,0,0,0,0,0,0,1009.8,1024.6
81,2022-02-28T01:20:00,0.3,北西,0.8,西北西,-0.6,88.5,0,0,0,0,0,0,1009.8,1024.6
82,2022-02-28T01:21:00,0.3,北西,1.4,西北西,-0.7,87.9,0,0,0,0,0,0,1009.8,1024.6
83,2022-02-28T01:22:00,0.4,北西,1.6,西,-0.7,88.1,0,0,0,0,0,0,1009.9,1024.7
84,2022-02-28T01:23:00,0.5,北西,1.6,西,-0.9,87.5,0,0,0,0,0,0,1009.9,1024.7
85,2022-02-28T01:24:00,0.6,北西,1.6,西,-0.9,87.2,0,0,0,0,0,0,1009.8,1024.6
86,2022-02-28T01:25:00,0.7,西北西,1.6,西,-0.8,87.3,0,0,0,0,0,0,1009.8,1024.6
87,2022-02-28T01:26:00,0.8,西北西,1.6,西,-0.6,88.2,0,0,0,0,0,0,1009.8,1024.6
88,2022-02-28T01:27:00,0.9,西北西,1.6,西,-0.5,88.3,0,0,0,0,0,0,1009.8,1024.6
89,2022-02-28T01:28:00,1,西北西,1.6,西,-0.7,87.4,0,0,0,0,0,0,1009.8,1024.6
90,2022-02-28T01:29:00,1,西北西,1.6,西,-0.7,87.1,0,0,0,0,0,0,1009.8,1024.6
91,2022-02-28T01:30:00,1.1,西北西,1.7,西北西,-0.7,87,0,0,0,0,0,0,1009.8,1024.6
92,2022-02-28T01:31:00,1.1,西,1.7,西北西,-0.5,87.5,0,0,0,0,0,0,1009.8,1024.6
93,2022-02-28T01:32:00,1.1,西北西,1.7,西北西,-0.4,87.5,0,0,0,0,0,0,1009.8,1024.5
94,2022-02-28T01:33:00,1.1,西北西,1.7,西北西,-0.8,86.8,0,0,0,0,0,0,1009.8,1024.6
95,2022-02-28T01:34:00,1.1,西北西,1.7,西北西,-0.9,85.5,0,0,0,0,0,0,1009.8,1024.6
96,2022-02-28T01:35:00,1.1,西北西,1.7,西北西,-1,85.3,0,0,0,0,0,0,1009.8,1024.6
97,2022-02-28T01:36:00,1.1,西北西,1.7,西北西,-0.9,85.7,0,0,0,0,0,0,1009.9,1024.7
98,2022-02-28T01:37:00,1.1,西北西,1.7,西北西,-0.7,86.3,0,0,0,0,0,0,1009.9,1024.7
99,2022-02-28T01:38:00,1.1,西北西,1.7,西北西,-0.6,86.9,0,0,0,0,0,0,1009.8,1024.6
100,2022-02-28T01:39:00,1.1,西北西,1.7,西北西,-0.8,86.6,0,0,0,0,0,0,1009.8,1024.6
101,2022-02-28T01:40:00,1,西北西,1.7,西,-0.6,86.5,0,0,0,0,0,0,1009.8,1024.6
102,2022-02-28T01:41:00,1,西北西,1.4,西北西,-0.7,86.4,0,0,0,0,0,0,1009.8,1024.6
103,2022-02-28T01:42:00,0.9,北西,1.3,西北西,-0.8,86.1,0,0,0,0,0,0,1009.8,1024.6
104,2022-02-28T01:43:00,0.9,北西,1.3,西北西,-0.8,85.9,0,0,0,0,0,0,1009.8,1024.6
105,2022-02-28T01:44:00,0.8,北西,1.3,西北西,-0.8,85.9,0,0,0,0,0,0,1009.8,1024.6
106,2022-02-28T01:45:00,0.8,北西,1.5,北,-0.8,86,0,0,0,0,0,0,1009.8,1024.6
107,2022-02-28T01:46:00,0.7,北北西,1.5,北,-1,85.9,0,0,0,0,0,0,1009.8,1024.6
108,2022-02-28T01:47:00,0.7,北北西,1.5,北,-0.9,85.9,0,0,0,0,0,0,1009.8,1024.6
109,2022-02-28T01:48:00,0.6,北北西,1.5,北,-1,85.9,0,0,0,0,0,0,1009.8,1024.6
110,2022-02-28T01:49:00,0.6,北北西,1.5,北,-1,86,0,0,0,0,0,0,1009.8,1024.6
111,2022-02-28T01:50:00,0.5,北北西,1.5,北,-1,86.2,0,0,0,0,0,0,1009.8,1024.6
112,2022-02-28T01:51:00,0.5,北北西,1.5,北,-1,86.7,0,0,0,0,0,0,1009.7,1024.5
113,2022-02-28T01:52:00,0.5,北,1.5,北,-1,87.1,0,0,0,0,0,0,1009.7,1024.5
114,2022-02-28T01:53:00,0.6,北,1.5,北,-1,86.9,0,0,0,0,0,0,1009.7,1024.5
115,2022-02-28T01:54:00,0.6,北,1.5,北,-0.9,87.3,0,0,0,0,0,0,1009.7,1024.5
116,2022-02-28T01:55:00,0.6,北,1.4,北北東,-1,87.6,0,0,0,0,0,0,1009.7,1024.5
117,2022-02-28T01:56:00,0.6,北,1.5,北,-0.8,87.9,0,0,0,0,0,0,1009.7,1024.5
118,2022-02-28T01:57:00,0.6,北,1.5,北,-0.9,88.2,0,0,0,0,0,0,1009.7,1024.5
119,2022-02-28T01:58:00,0.7,北,1.6,北北東,-0.9,88.2,0,0,0,0,0,0,1009.6,1024.4
120,2022-02-28T01:59:00,0.7,北,1.6,北北東,-1,87.8,0,0,0,0,0,0,1009.6,1024.4
121,2022-02-28T02:00:00,0.7,北,1.6,北北東,-1,88,0,0,0,0,0,0,1009.6,1024.4
122,2022-02-28T02:01:00,0.7,北,1.6,北北東,-0.9,88.3,0,0,0,0,0,0,1009.6,1024.4
123,2022-02-28T02:02:00,0.7,北,1.6,北北東,-1,88.3,0,0,0,0,0,0,1009.6,1024.4
124,2022-02-28T02:03:00,0.6,北,1.6,北北東,-0.9,88.4,0,0,0,0,0,0,1009.6,1024.4
125,2022-02-28T02:04:00,0.6,北,1.6,北北東,-1,88.4,0,0,0,0,0,0,1009.6,1024.4
126,2022-02-28T02:05:00,0.6,北,1.6,北北東,-1,88.5,0,0,0,0,0,0,1009.6,1024.4
127,2022-02-28T02:06:00,0.6,北,1.6,北北東,-1,88.5,0,0,0,0,0,0,1009.6,1024.4
128,2022-02-28T02:07:00,0.6,北北西,1.6,北北東,-0.9,88.7,0,0,0,0,0,0,1009.5,1024.3
129,2022-02-28T02:08:00,0.5,北北西,1.5,北北東,-0.9,89,0,0,0,0,0,0,1009.5,1024.3
130,2022-02-28T02:09:00,0.5,北北西,1.3,北北東,-1,88.9,0,0,0,0,0,0,1009.6,1024.4
131,2022-02-28T02:10:00,0.5,北北西,1.3,北北東,-0.9,89,0,0,0,0,0,0,1009.6,1024.4
132,2022-02-28T02:11:00,0.4,北北西,1.3,北北東,-0.9,88.9,0,0,0,0,0,0,1009.5,1024.3
133,2022-02-28T02:12:00,0.4,北北西,1.1,北西,-1,88.9,0,0,0,0,0,0,1009.5,1024.3
134,2022-02-28T02:13:00,0.3,北,1.1,北西,-1,88.8,0,0,0,0,0,0,1009.6,1024.4
135,2022-02-28T02:14:00,0.3,北,0.9,北西,-1,88.9,0,0,0,0,0,0,1009.6,1024.4
136,2022-02-28T02:15:00,0.3,北,0.9,北西,-0.9,89.3,0,0,0,0,0,0,1009.5,1024.3
137,2022-02-28T02:16:00,0.2,静穏,0.9,北西,-0.9,89.3,0,0,0,0,0,0,1009.5,1024.3
138,2022-02-28T02:17:00,0.2,静穏,0.8,北西,-0.9,89.4,0,0,0,0,0,0,1009.5,1024.3
139,2022-02-28T02:18:00,0.2,静穏,0.8,北西,-0.7,89.4,0,0,0,0,0,0,1009.5,1024.3
140,2022-02-28T02:19:00,0.2,静穏,0.8,北西,-1.1,89.2,0,0,0,0,0,0,1009.5,1024.3
141,2022-02-28T02:20:00,0.2,静穏,0.7,北東,-1.2,88.4,0,0,0,0,0,0,1009.5,1024.3
142,2022-02-28T02:21:00,0.2,静穏,0.7,北東,-1.2,88.4,0,0,0,0,0,0,1009.5,1024.3
143,2022-02-28T02:22:00,0.1,静穏,0.6,北北東,-1.1,89,0,0,0,0,0,0,1009.5,1024.3
144,2022-02-28T02:23:00,0.1,静穏,0.6,北北東,-0.9,89.6,0,0,0,0,0,0,1009.5,1024.3
145,2022-02-28T02:24:00,0.1,静穏,0.6,北北東,-0.9,89.8,0,0,0,0,0,0,1009.5,1024.3
146,2022-02-28T02:25:00,0.1,静穏,0.6,北北東,-0.9,89.6,0,0,0,0,0,0,1009.5,1024.3
147,2022-02-28T02:26:00,0.1,静穏,0.8,北北西,-1,89.6,0,0,0,0,0,0,1009.5,1024.3
148,2022-02-28T02:27:00,0.1,静穏,0.8,北北西,-1,89.7,0,0,0,0,0,0,1009.5,1024.3
149,2022-02-28T02:28:00,0.2,静穏,0.8,北北西,-1,89.7,0,0,0,0,0,0,1009.5,1024.3
150,2022-02-28T02:29:00,0.2,静穏,0.8,北北西,-1,89.6,0,0,0,0,0,0,1009.5,1024.3
151,2022-02-28T02:30:00,0.2,静穏,0.8,北北西,-1.1,89.5,0,0,0,0,0,0,1009.5,1024.3
152,2022-02-28T02:31:00,0.2,静穏,0.8,北北西,-1,89.8,0,0,0,0,0,0,1009.5,1024.3
153,2022-02-28T02:32:00,0.2,静穏,0.8,北北西,-0.9,89.8,0,0,0,0,0,0,1009.5,1024.3
154,2022-02-28T02:33:00,0.2,静穏,0.8,北北西,-0.9,90.1,0,0,0,0,0,0,1009.5,1024.3
155,2022-02-28T02:34:00,0.2,静穏,0.8,北北西,-1,89.8,0,0,0,0,0,0,1009.5,1024.3
156,2022-02-28T02:35:00,0.2,静穏,0.8,北北西,-1.1,89.3,0,0,0,0,0,0,1009.5,1024.3
157,2022-02-28T02:36:00,0.2,静穏,0.6,北北西,-1,89.4,0,0,0,0,0,0,1009.5,1024.3
158,2022-02-28T02:37:00,0.2,静穏,0.6,北北西,-1,89.9,0,0,0,0,0,0,1009.5,1024.3
159,2022-02-28T02:38:00,0.2,静穏,0.4,西,-1.2,89.3,0,0,0,0,0,0,1009.5,1024.3
160,2022-02-28T02:39:00,0.2,静穏,0.5,北西,-1.2,89.3,0,0,0,0,0,0,1009.5,1024.3
161,2022-02-28T02:40:00,0.2,静穏,0.5,北西,-1.2,89.3,0,0,0,0,0,0,1009.4,1024.2
162,2022-02-28T02:41:00,0.1,静穏,0.5,北西,-1.2,88.9,0,0,0,0,0,0,1009.4,1024.2
163,2022-02-28T02:42:00,0.1,静穏,0.5,北西,-1.1,89.6,0,0,0,0,0,0,1009.5,1024.3
164,2022-02-28T02:43:00,0.2,静穏,0.5,北西,-1.2,89.7,0,0,0,0,0,0,1009.5,1024.3
165,2022-02-28T02:44:00,0.2,静穏,0.5,北西,-1.3,89.2,0,0,0,0,0,0,1009.5,1024.3
166,2022-02-28T02:45:00,0.2,静穏,0.5,北西,-1.2,89.4,0,0,0,0,0,0,1009.5,1024.3
167,2022-02-28T02:46:00,0.2,静穏,0.5,北西,-1.3,89.2,0,0,0,0,0,0,1009.5,1024.3
168,2022-02-28T02:47:00,0.2,静穏,0.5,北西,-1.4,89,0,0,0,0,0,0,1009.5,1024.3
169,2022-02-28T02:48:00,0.2,静穏,0.6,北北西,-1.3,89.4,0,0,0,0,0,0,1009.5,1024.3
170,2022-02-28T02:49:00,0.2,静穏,0.6,北北西,-1.3,89.5,0,0,0,0,0,0,1009.5,1024.3
171,2022-02-28T02:50:00,0.3,北西,0.6,北北西,-1.3,89.4,0,0,0,0,0,0,1009.5,1024.3
172,2022-02-28T02:51:00,0.3,北西,0.8,北西,-1.4,89.4,0,0,0,0,0,0,1009.5,1024.3
173,2022-02-28T02:52:00,0.4,北西,0.8,北西,-1.5,89.2,0,0,0,0,0,0,1009.4,1024.2
174,2022-02-28T02:53:00,0.4,北西,0.8,北西,-1.4,89.3,0,0,0,0,0,0,1009.5,1024.3
175,2022-02-28T02:54:00,0.4,北西,0.9,西北西,-1.5,89.3,0,0,0,0,0,0,1009.5,1024.3
176,2022-02-28T02:55:00,0.4,西北西,0.9,西北西,-1.6,89.1,0,0,0,0,0,0,1009.5,1024.3
177,2022-02-28T02:56:00,0.4,西北西,0.9,西北西,-1.6,89.2,0,0,0,0,0,0,1009.4,1024.2
178,2022-02-28T02:57:00,0.4,西北西,0.9,西北西,-1.4,89.7,0,0,0,0,0,0,1009.4,1024.2
179,2022-02-28T02:58:00,0.4,西北西,1.1,北西,-1.4,89.8,0,0,0,0,0,0,1009.5,1024.3
180,2022-02-28T02:59:00,0.5,西北西,1.6,西北西,-1.3,90.1,0,0,0,0,0,0,1009.5,1024.3
181,2022-02-28T03:00:00,0.6,西北西,1.6,西北西,-1.3,90.1,0,0,0,0,0,0,1009.4,1024.2
182,2022-02-28T03:01:00,0.7,西北西,1.6,西北西,-1.4,90,0,0,0,0,0,0,1009.4,1024.2
183,2022-02-28T03:02:00,0.7,西北西,1.6,西北西,-1.4,89.6,0,0,0,0,0,0,1009.4,1024.2
184,2022-02-28T03:03:00,0.7,西北西,1.6,西北西,-1.6,89.3,0,0,0,0,0,0,1009.4,1024.2
185,2022-02-28T03:04:00,0.8,西北西,1.6,西北西,-1.6,89.3,0,0,0,0,0,0,1009.4,1024.2
186,2022-02-28T03:05:00,0.8,西北西,1.6,西北西,-1.6,89.1,0,0,0,0,0,0,1009.4,1024.2
187,2022-02-28T03:06:00,0.9,西北西,1.6,西北西,-1.4,89.6,0,0,0,0,0,0,1009.5,1024.3
188,2022-02-28T03:07:00,1,西北西,1.6,西北西,-1.3,90.4,0,0,0,0,0,0,1009.5,1024.3
189,2022-02-28T03:08:00,1,西,1.6,西北西,-1.3,90.1,0,0,0,0,0,0,1009.5,1024.3
190,2022-02-28T03:09:00,1,西,1.6,西北西,-1.5,89.5,0,0,0,0,0,0,1009.4,1024.2
191,2022-02-28T03:10:00,0.9,西,1.4,西,-1.5,89.2,0,0,0,0,0,0,1009.4,1024.2
192,2022-02-28T03:11:00,0.9,西,1.4,西,-1.6,89.1,0,0,0,0,0,0,1009.4,1024.2
193,2022-02-28T03:12:00,0.9,西,1.4,西,-1.6,89.1,0,0,0,0,0,0,1009.4,1024.2
194,2022-02-28T03:13:00,0.9,西,1.4,西,-1.5,89.1,0,0,0,0,0,0,1009.4,1024.2
195,2022-02-28T03:14:00,0.9,西,1.4,西,-1.4,89.5,0,0,0,0,0,0,1009.4,1024.2
196,2022-02-28T03:15:00,0.9,西,1.3,西,-1.4,89.6,0,0,0,0,0,0,1009.4,1024.2
197,2022-02-28T03:16:00,0.9,西,1.3,西,-1.5,89.3,0,0,0,0,0,0,1009.5,1024.3
198,2022-02-28T03:17:00,0.9,西,1.3,西,-1.3,89.6,0,0,0,0,0,0,1009.5,1024.3
199,2022-02-28T03:18:00,0.9,西,1.3,西,-1.3,89.8,0,0,0,0,0,0,1009.5,1024.3
200,2022-02-28T03:19:00,0.9,西,1.3,西,-1.5,89.4,0,0,0,0,0,0,1009.5,1024.3
201,2022-02-28T03:20:00,0.8,西,1.3,西,-1.6,88.6,0,0,0,0,0,0,1009.5,1024.3
202,2022-02-28T03:21:00,0.8,西,1.3,西,-1.6,88.6,0,0,0,0,0,0,1009.5,1024.3
203,2022-02-28T03:22:00,0.8,西北西,1.2,西,-1.5,88.9,0,0,0,0,0,0,1009.5,1024.3
204,2022-02-28T03:23:00,0.7,西北西,1.2,西,-1.4,89.4,0,0,0,0,0,0,1009.5,1024.3
205,2022-02-28T03:24:00,0.7,西北西,1,西南西,-1.3,89.5,0,0,0,0,0,0,1009.5,1024.3
206,2022-02-28T03:25:00,0.6,西北西,1,西南西,-1.5,89.2,0,0,0,0,0,0,1009.5,1024.3
207,2022-02-28T03:26:00,0.6,西北西,1,西南西,-1.6,88.3,0,0,0,0,0,0,1009.5,1024.3
208,2022-02-28T03:27:00,0.5,西北西,1,西南西,-1.6,88.4,0,0,0,0,0,0,1009.5,1024.3
209,2022-02-28T03:28:00,0.5,西北西,1,西南西,-1.8,88.2,0,0,0,0,0,0,1009.5,1024.3
210,2022-02-28T03:29:00,0.5,西北西,1,西南西,-1.9,87.7,0,0,0,0,0,0,1009.5,1024.3
211,2022-02-28T03:30:00,0.5,西北西,1.2,西北西,-1.8,87.9,0,0,0,0,0,0,1009.5,1024.3
212,2022-02-28T03:31:00,0.6,西北西,1.2,西北西,-1.8,88.3,0,0,0,0,0,0,1009.5,1024.3
213,2022-02-28T03:32:00,0.6,西北西,1.3,西,-1.8,88.3,0,0,0,0,0,0,1009.5,1024.3
214,2022-02-28T03:33:00,0.7,西北西,1.3,西,-1.8,88.6,0,0,0,0,0,0,1009.5,1024.3
215,2022-02-28T03:34:00,0.7,西北西,1.3,西,-1.9,88,0,0,0,0,0,0,1009.5,1024.3
216,2022-02-28T03:35:00,0.7,西,1.3,西,-1.9,88.2,0,0,0,0,0,0,1009.5,1024.3
217,2022-02-28T03:36:00,0.7,西,1.3,西,-1.7,88.8,0,0,0,0,0,0,1009.5,1024.3
218,2022-02-28T03:37:00,0.7,西,1.3,西,-1.4,89.5,0,0,0,0,0,0,1009.5,1024.3
219,2022-02-28T03:38:00,0.7,西,1.3,西,-1.5,89.6,0,0,0,0,0,0,1009.5,1024.3
220,2022-02-28T03:39:00,0.6,西,1.3,西,-1.5,89.4,0,0,0,0,0,0,1009.5,1024.3
221,2022-02-28T03:40:00,0.5,西,1.3,西,-1.5,89,0,0,0,0,0,0,1009.5,1024.3
222,2022-02-28T03:41:00,0.4,西南西,1.3,西,-1.6,89,0,0,0,0,0,0,1009.5,1024.3
223,2022-02-28T03:42:00,0.3,南西,1.2,西南西,-1.6,89,0,0,0,0,0,0,1009.5,1024.3
224,2022-02-28T03:43:00,0.2,静穏,1.2,西南西,-1.7,88.8,0,0,0,0,0,0,1009.4,1024.2
225,2022-02-28T03:44:00,0.2,静穏,0.8,西南西,-1.6,88.9,0,0,0,0,0,0,1009.4,1024.2
226,2022-02-28T03:45:00,0.1,静穏,0.6,西北西,-1.5,89.2,0,0,0,0,0,0,1009.4,1024.2
227,2022-02-28T03:46:00,0.1,静穏,0.5,南南西,-1.7,88.9,0,0,0,0,0,0,1009.4,1024.2
228,2022-02-28T03:47:00,0.1,静穏,0.5,南南西,-1.9,88.1,0,0,0,0,0,0,1009.4,1024.2
229,2022-02-28T03:48:00,0.1,静穏,0.5,南南西,-1.6,88.8,0,0,0,0,0,0,1009.4,1024.2
230,2022-02-28T03:49:00,0.1,静穏,0.5,南南西,-1.6,89.2,0,0,0,0,0,0,1009.4,1024.2
231,2022-02-28T03:50:00,0.1,静穏,0.5,南南西,-1.4,89.5,0,0,0,0,0,0,1009.4,1024.2
232,2022-02-28T03:51:00,0.1,静穏,0.5,南南西,-1.6,89.1,0,0,0,0,0,0,1009.4,1024.2
233,2022-02-28T03:52:00,0.1,静穏,0.5,南南西,-1.6,89,0,0,0,0,0,0,1009.4,1024.2
234,2022-02-28T03:53:00,0.1,静穏,0.5,南南西,-1.7,88.7,0,0,0,0,0,0,1009.5,1024.3
235,2022-02-28T03:54:00,0.1,静穏,0.4,西,-1.8,88.2,0,0,0,0,0,0,1009.5,1024.3
236,2022-02-28T03:55:00,0.2,静穏,0.4,西,-1.7,88.6,0,0,0,0,0,0,1009.5,1024.3
237,2022-02-28T03:56:00,0.2,静穏,0.4,西,-1.9,88.2,0,0,0,0,0,0,1009.5,1024.3
238,2022-02-28T03:57:00,0.2,静穏,0.4,西,-2,88,0,0,0,0,0,0,1009.5,1024.3
239,2022-02-28T03:58:00,0.2,静穏,0.4,西,-2.1,87.9,0,0,0,0,0,0,1009.5,1024.3
240,2022-02-28T03:59:00,0.2,静穏,0.4,西,-2,88.6,0,0,0,0,0,0,1009.5,1024.3
241,2022-02-28T04:00:00,0.3,北西,0.4,西,-1.9,88.8,0,0,0,0,0,0,1009.5,1024.3
242,2022-02-28T04:01:00,0.3,北西,0.4,西,-1.9,88.9,0,0,0,0,0,0,1009.5,1024.3
243,2022-02-28T04:02:00,0.3,北西,0.5,北,-1.9,89.1,0,0,0,0,0,0,1009.5,1024.3
244,2022-02-28T04:03:00,0.3,北西,0.5,北,-2,88.7,0,0,0,0,0,0,1009.5,1024.3
245,2022-02-28T04:04:00,0.3,北西,0.6,北西,-2,88.6,0,0,0,0,0,0,1009.5,1024.3
246,2022-02-28T04:05:00,0.4,北西,1,北西,-2.1,89,0,0,0,0,0,0,1009.5,1024.3
247,2022-02-28T04:06:00,0.4,北北西,1,北西,-2.1,88.7,0,0,0,0,0,0,1009.5,1024.3
248,2022-02-28T04:07:00,0.4,北北西,1,北西,-2,88.7,0,0,0,0,0,0,1009.6,1024.4
249,2022-02-28T04:08:00,0.4,北北西,1,北西,-1.9,89.2,0,0,0,0,0,0,1009.5,1024.3
250,2022-02-28T04:09:00,0.4,北北西,1,北西,-1.9,89.4,0,0,0,0,0,0,1009.6,1024.4
251,2022-02-28T04:10:00,0.4,北北西,1,北西,-1.8,89.6,0,0,0,0,0,0,1009.6,1024.4
252,2022-02-28T04:11:00,0.5,北北西,1,北西,-1.9,89.5,0,0,0,0,0,0,1009.6,1024.4
253,2022-02-28T04:12:00,0.5,北北西,1,北西,-2,89.2,0,0,0,0,0,0,1009.6,1024.4
254,2022-02-28T04:13:00,0.5,北北西,1,北西,-2,88.7,0,0,0,0,0,0,1009.6,1024.4
255,2022-02-28T04:14:00,0.5,北北西,1,北西,-2,88.8,0,0,0,0,0,0,1009.6,1024.4
256,2022-02-28T04:15:00,0.5,北北西,1,北西,-2,89.2,0,0,0,0,0,0,1009.7,1024.5
257,2022-02-28T04:16:00,0.5,北北西,1,北西,-1.9,88.8,0,0,0,0,0,0,1009.7,1024.5
258,2022-02-28T04:17:00,0.5,北北西,1,北西,-2.1,89,0,0,0,0,0,0,1009.7,1024.5
259,2022-02-28T04:18:00,0.5,北北西,1,北西,-2.1,88.6,0,0,0,0,0,0,1009.7,1024.5
260,2022-02-28T04:19:00,0.5,北北西,1,北西,-2.1,88.9,0,0,0,0,0,0,1009.7,1024.5
261,2022-02-28T04:20:00,0.5,北北西,1,北西,-2.1,88.9,0,0,0,0,0,0,1009.7,1024.5
262,2022-02-28T04:21:00,0.5,北北西,1,北西,-2,89.3,0,0,0,0,0,0,1009.7,1024.5
263,2022-02-28T04:22:00,0.5,北北西,1,北西,-2,89.4,0,0,0,0,0,0,1009.7,1024.5
264,2022-02-28T04:23:00,0.5,北北西,1,北西,-2.1,89.2,0,0,0,0,0,0,1009.7,1024.5
265,2022-02-28T04:24:00,0.4,北北西,1,北西,-2.2,88.7,0,0,0,0,0,0,1009.7,1024.5
266,2022-02-28T04:25:00,0.4,北北西,0.9,北西,-2.2,89,0,0,0,0,0,0,1009.7,1024.5
267,2022-02-28T04:26:00,0.4,北北西,0.8,北西,-2.2,89.1,0,0,0,0,0,0,1009.7,1024.5
268,2022-02-28T04:27:00,0.4,北北西,0.8,北西,-2.1,89.4,0,0,0,0,0,0,1009.7,1024.5
269,2022-02-28T04:28:00,0.4,北西,0.9,西北西,-2.1,89.6,0,0,0,0,0,0,1009.7,1024.5
270,2022-02-28T04:29:00,0.4,北西,0.9,西北西,-2.1,89.6,0,0,0,0,0,0,1009.7,1024.5
271,2022-02-28T04:30:00,0.4,北西,0.9,西北西,-2.1,89.5,0,0,0,0,0,0,1009.7,1024.5
272,2022-02-28T04:31:00,0.4,北西,0.9,西北西,-2,89.5,0,0,0,0,0,0,1009.7,1024.5
273,2022-02-28T04:32:00,0.5,北西,0.9,西北西,-2.1,89.4,0,0,0,0,0,0,1009.7,1024.5
274,2022-02-28T04:33:00,0.5,北西,1,西北西,-2.1,89.4,0,0,0,0,0,0,1009.7,1024.5
275,2022-02-28T04:34:00,0.6,北西,1.2,西北西,-2,89.4,0,0,0,0,0,0,1009.8,1024.6
276,2022-02-28T04:35:00,0.7,北西,1.2,西北西,-2.1,89.6,0,0,0,0,0,0,1009.8,1024.6
277,2022-02-28T04:36:00,0.7,北西,1.2,西北西,-2.1,89.5,0,0,0,0,0,0,1009.8,1024.6
278,2022-02-28T04:37:00,0.7,北西,1.2,西北西,-2,89.6,0,0,0,0,0,0,1009.8,1024.6
279,2022-02-28T04:38:00,0.6,北西,1.2,西北西,-1.9,89.7,0,0,0,0,0,0,1009.7,1024.5
280,2022-02-28T04:39:00,0.6,北西,1.2,西北西,-1.9,90,0,0,0,0,0,0,1009.7,1024.5
281,2022-02-28T04:40:00,0.6,北西,1.2,西北西,-1.9,89.6,0,0,0,0,0,0,1009.8,1024.6
282,2022-02-28T04:41:00,0.6,北西,1.2,西北西,-2,89.7,0,0,0,0,0,0,1009.7,1024.5
283,2022-02-28T04:42:00,0.5,北西,1.2,西北西,-2,89.4,0,0,0,0,0,0,1009.7,1024.5
284,2022-02-28T04:43:00,0.5,北西,1.2,西北西,-2,89.9,0,0,0,0,0,0,1009.8,1024.6
285,2022-02-28T04:44:00,0.4,北西,1.1,西,-2,89.8,0,0,0,0,0,0,1009.8,1024.6
286,2022-02-28T04:45:00,0.4,北西,1,北北西,-2,89.7,0,0,0,0,0,0,1009.8,1024.6
287,2022-02-28T04:46:00,0.4,北西,0.9,北西,-2,89.6,0,0,0,0,0,0,1009.8,1024.6
288,2022-02-28T04:47:00,0.4,北西,0.9,北西,-2.1,89.6,0,0,0,0,0,0,1009.8,1024.6
289,2022-02-28T04:48:00,0.4,北西,0.9,北西,-2.1,89.6,0,0,0,0,0,0,1009.8,1024.6
290,2022-02-28T04:49:00,0.5,北西,0.9,北西,-2,89.7,0,0,0,0,0,0,1009.8,1024.6
291,2022-02-28T04:50:00,0.5,北西,1,北西,-1.8,90.3,0,0,0,0,0,0,1009.8,1024.6
292,2022-02-28T04:51:00,0.5,北西,1,北西,-1.9,90.3,0,0,0,0,0,0,1009.8,1024.6
293,2022-02-28T04:52:00,0.5,北西,1,北西,-2,90,0,0,0,0,0,0,1009.8,1024.6
294,2022-02-28T04:53:00,0.5,北西,1,北西,-2,89.7,0,0,0,0,0,0,1009.9,1024.7
295,2022-02-28T04:54:00,0.5,北西,1,北西,-1.9,90,0,0,0,0,0,0,1009.9,1024.7
296,2022-02-28T04:55:00,0.4,北西,1,北西,-1.9,90.4,0,0,0,0,0,0,1009.9,1024.7
297,2022-02-28T04:56:00,0.3,北北西,1,北西,-2,90.1,0,0,0,0,0,0,1009.9,1024.7
298,2022-02-28T04:57:00,0.3,北北西,1,北西,-2,89.7,0,0,0,0,0,0,1009.9,1024.7
299,2022-02-28T04:58:00,0.3,北北西,1,北西,-2,90.1,0,0,0,0,0,0,1009.9,1024.7
300,2022-02-28T04:59:00,0.2,静穏,1,北西,-2,90.1,0,0,0,0,0,0,1009.9,1024.7
301,2022-02-28T05:00:00,0.1,静穏,0.9,北西,-2,90,0,0,0,0,0,0,1009.9,1024.7
302,2022-02-28T05:01:00,0.1,静穏,0.4,東北東,-2.2,89.7,0,0,0,0,0,0,1009.9,1024.7
303,2022-02-28T05:02:00,0.1,静穏,0.4,東北東,-2.1,89.7,0,0,0,0,0,0,1010,1024.8
304,2022-02-28T05:03:00,0.1,静穏,0.4,東北東,-2,90.1,0,0,0,0,0,0,1009.9,1024.7
305,2022-02-28T05:04:00,0.1,静穏,0.3,北,-2.2,90,0,0,0,0,0,0,1010,1024.8
306,2022-02-28T05:05:00,0.1,静穏,0.3,北,-2.2,89.7,0,0,0,0,0,0,1009.9,1024.7
307,2022-02-28T05:06:00,0.1,静穏,0.3,北,-2.2,89.8,0,0,0,0,0,0,1010,1024.8
308,2022-02-28T05:07:00,0.1,静穏,0.3,北,-2.3,89.6,0,0,0,0,0,0,1010,1024.9
309,2022-02-28T05:08:00,0.1,静穏,0.3,北,-2.3,89.6,0,0,0,0,0,0,1010,1024.9
310,2022-02-28T05:09:00,0.1,静穏,0.3,北,-2.4,89.5,0,0,0,0,0,0,1010,1024.9
311,2022-02-28T05:10:00,0.1,静穏,0.3,北,-2.2,89.7,0,0,0,0,0,0,1010,1024.8
312,2022-02-28T05:11:00,0.1,静穏,0.3,北,-2.2,90,0,0,0,0,0,0,1010,1024.8
313,2022-02-28T05:12:00,0.1,静穏,0.2,北北東,-2.2,89.9,0,0,0,0,0,0,1010,1024.8
314,2022-02-28T05:13:00,0,静穏,0.2,北北東,-2.2,89.9,0,0,0,0,0,0,1010,1024.8
315,2022-02-28T05:14:00,0,静穏,0.2,北北東,-2.3,89.7,0,0,0,0,0,0,1010,1024.9
316,2022-02-28T05:15:00,0,静穏,0.2,北北東,-2.1,90,0,0,0,0,0,0,1010,1024.8
317,2022-02-28T05:16:00,0,静穏,0.2,北北東,-2,90.5,0,0,0,0,0,0,1010.1,1024.9
318,2022-02-28T05:17:00,0,静穏,0.2,北北東,-2,90.3,0,0,0,0,0,0,1010.1,1024.9
319,2022-02-28T05:18:00,0,静穏,0.1,北東,-2,89.9,0,0,0,0,0,0,1010.1,1024.9
320,2022-02-28T05:19:00,0,静穏,0.1,北東,-2,90.2,0,0,0,0,0,0,1010.2,1025
321,2022-02-28T05:20:00,0,静穏,0.3,東北東,-2.1,89.8,0,0,0,0,0,0,1010.2,1025
322,2022-02-28T05:21:00,0,静穏,0.3,東北東,-2,89.8,0,0,0,0,0,0,1010.2,1025
323,2022-02-28T05:22:00,0,静穏,0.3,東北東,-1.9,90.1,0,0,0,0,0,0,1010.2,1025
324,2022-02-28T05:23:00,0,静穏,0.3,東北東,-2,90.2,0,0,0,0,0,0,1010.2,1025
325,2022-02-28T05:24:00,0,静穏,0.3,東北東,-2.1,89.6,0,0,0,0,0,0,1010.2,1025
326,2022-02-28T05:25:00,0.1,静穏,0.3,東北東,-2.2,89.4,0,0,0,0,0,0,1010.3,1025.2
327,2022-02-28T05:26:00,0.1,静穏,0.3,東北東,-2.2,89.3,0,0,0,0,0,0,1010.3,1025.2